| time (UTC) | temp F | wind direction | speed MPH | gust MPH | rain 1hr in | rain 24hr in | rain mn in | humidity % | barometer mb |
| 20260504221503 | 67 | 254 | 2.0 | 13.0 | 0.00 | 0.00 | 0.00 | 43 | 1004.8 |
| 20260504220028 | 68 | 277 | 2.0 | 7.0 | 0.00 | 0.00 | 0.00 | 41 | 1004.7 |
| 20260504214555 | 69 | 281 | 1.0 | 7.0 | 0.00 | 0.00 | 0.00 | 40 | 1004.8 |
| 20260504213022 | 70 | 252 | 1.0 | 6.0 | 0.00 | 0.00 | 0.00 | 40 | 1004.8 |
| 20260504211550 | 70 | 263 | 2.0 | 13.0 | 0.00 | 0.00 | 0.00 | 39 | 1004.8 |
| 20260504210017 | 70 | 310 | 3.0 | 9.0 | 0.00 | 0.00 | 0.00 | 39 | 1004.7 |
| 20260504204553 | 69 | 253 | 3.0 | 8.0 | 0.00 | 0.00 | 0.00 | 41 | 1004.7 |
| 20260504203004 | 69 | 284 | 2.0 | 11.0 | 0.00 | 0.00 | 0.00 | 41 | 1004.7 |
| 20260504201518 | 68 | 284 | 4.0 | 15.0 | 0.00 | 0.00 | 0.00 | 42 | 1004.8 |
| 20260504200045 | 68 | 287 | 3.0 | 14.0 | 0.00 | 0.00 | 0.00 | 44 | 1004.9 |
| 20260504194509 | 67 | 317 | 5.0 | 16.0 | 0.00 | 0.00 | 0.00 | 42 | 1004.9 |
| 20260504193037 | 67 | 294 | 3.0 | 16.0 | 0.00 | 0.00 | 0.00 | 43 | 1005.0 |
| 20260504191510 | 68 | 295 | 4.0 | 11.0 | 0.00 | 0.00 | 0.00 | 43 | 1005.0 |
| 20260504190036 | 67 | 312 | 4.0 | 13.0 | 0.00 | 0.00 | 0.00 | 44 | 1005.1 |
| 20260504184559 | 64 | 310 | 3.0 | 10.0 | 0.00 | 0.00 | 0.00 | 48 | 1005.1 |
| 20260504183019 | 62 | 278 | 6.0 | 12.0 | 0.00 | 0.00 | 0.00 | 49 | 1005.5 |
| 20260504181553 | 62 | 311 | 4.0 | 13.0 | 0.00 | 0.00 | 0.00 | 49 | 1005.6 |
| 20260504180017 | 62 | 275 | 4.0 | 14.0 | 0.00 | 0.00 | 0.00 | 47 | 1005.5 |
| 20260504174548 | 62 | 269 | 5.0 | 14.0 | 0.00 | 0.00 | 0.00 | 47 | 1005.6 |
| 20260504173015 | 62 | 290 | 4.0 | 14.0 | 0.00 | 0.00 | 0.00 | 43 | 1005.6 |
| 20260504171545 | 63 | 275 | 5.0 | 12.0 | 0.00 | 0.00 | 0.00 | 42 | 1005.3 |
| 20260504081548 | 39 | 173 | 0.0 | 0.0 | 0.00 | 0.00 | 0.00 | 72 | 1008.1 |
| 20260504044557 | 37 | 248 | 0.0 | 3.0 | 0.00 | 0.00 | 0.00 | 76 | 1007.9 |
| 20260504043036 | 37 | 193 | 1.0 | 2.0 | 0.00 | 0.00 | 0.00 | 77 | 1007.8 |
| 20260504041540 | 37 | 187 | 0.0 | 1.0 | 0.00 | 0.00 | 0.00 | 76 | 1007.8 |
| 20260504040002 | 37 | 171 | 0.0 | 3.0 | 0.00 | 0.00 | 0.00 | 77 | 1007.8 |
| 20260504034526 | 37 | 144 | 1.0 | 2.0 | 0.00 | 0.00 | 0.00 | 77 | 1007.7 |
| 20260504033053 | 38 | 235 | 0.0 | 1.0 | 0.00 | 0.00 | 0.00 | 76 | 1007.6 |
| 20260504031512 | 39 | 235 | 0.0 | 2.0 | 0.00 | 0.00 | 0.00 | 75 | 1007.6 |
| 20260504030037 | 40 | 215 | 0.0 | 0.0 | 0.00 | 0.01 | 0.00 | 71 | 1007.5 |
| 20260504024506 | 40 | 215 | 0.0 | 0.0 | 0.00 | 0.01 | 0.00 | 71 | 1007.5 |
| 20260504023034 | 40 | 215 | 0.0 | 0.0 | 0.00 | 0.01 | 0.00 | 71 | 1007.6 |
| 20260504021600 | 41 | 215 | 0.0 | 2.0 | 0.00 | 0.01 | 0.00 | 71 | 1007.6 |
| 20260504020029 | 41 | 194 | 0.0 | 1.0 | 0.00 | 0.01 | 0.00 | 70 | 1007.5 |
| 20260504014610 | 41 | 194 | 0.0 | 1.0 | 0.00 | 0.01 | 0.00 | 70 | 1007.6 |
| 20260504013036 | 42 | 194 | 0.0 | 2.0 | 0.00 | 0.01 | 0.00 | 70 | 1007.5 |
| 20260504011554 | 43 | 258 | 0.0 | 2.0 | 0.00 | 0.01 | 0.00 | 68 | 1007.4 |
| 20260504010024 | 43 | 270 | 2.0 | 5.0 | 0.00 | 0.04 | 0.00 | 67 | 1007.1 |
| 20260504004620 | 44 | 304 | 3.0 | 10.0 | 0.00 | 0.04 | 0.00 | 64 | 1007.0 |
| 20260504003023 | 44 | 311 | 3.0 | 12.0 | 0.00 | 0.04 | 0.00 | 62 | 1006.7 |
| 20260504001615 | 45 | 314 | 3.0 | 11.0 | 0.00 | 0.04 | 0.00 | 61 | 1006.3 |
| 20260504000013 | 45 | 304 | 3.0 | 10.0 | 0.00 | 0.05 | 0.00 | 60 | 1006.1 |
| 20260503234545 | 46 | 261 | 5.0 | 14.0 | 0.00 | 0.05 | 0.00 | 58 | 1005.9 |
| 20260503233020 | 47 | 294 | 7.0 | 20.0 | 0.00 | 0.05 | 0.00 | 54 | 1005.7 |
| 20260503231544 | 48 | 323 | 7.0 | 16.0 | 0.00 | 0.05 | 0.00 | 53 | 1005.5 |
| 20260503230010 | 48 | 295 | 9.0 | 18.0 | 0.00 | 0.08 | 0.00 | 52 | 1005.4 |
| 20260503224539 | 49 | 316 | 10.0 | 24.0 | 0.00 | 0.08 | 0.00 | 51 | 1005.0 |
| 20260503223006 | 49 | 297 | 11.0 | 21.0 | 0.00 | 0.08 | 0.00 | 50 | 1004.8 |